Погода в Маме

Поиск расширенной информации на нашем сайте:

Полезная информация:

Новости сайта



02.01.2020
Опубликован Долгосрочный прогноз погоды по городам России и ближнего зарубежья на январь 2020 года.
Карты: Прогноз на январь и февраль 2020 года, Сравнение прогнозируемой аномалии приземной температуры воздуха на январь 2020 года по разным моделям.




Погода в Маме - сегодня

Время (UTC), дата Ветер
(°,м/с) 
Видим.   Явления Облачность Т
(°С)
Тd
(°С)
f(%) Тe
(°С)
Pmin
(гПа)
dP
(гПа)
Po
(мм)
O2
(г/м3)
Тmin Tmax R s Состояние
почвы
18 23.11.20 310 (СЗ) 10 км  слаб. ливневой снег  10/8 1140 м кучево-дожд., средняя 
[Cb cap|Ac As]
-3.8 -4.6 94 -3  1022.6  1.4  746  305           
21 23.11.20 320 (СЗ) 6-10{13}  20000 м  позёмок{ливн. осадки}  10/8 1170 м кучево-дожд., средняя 
[Cb cap|Ac As]
-4.6 -9.4 69 -9  1024.8  747  307           
00 24.11.20 230 (ЮЗ) 2-10{13}  20000 м  {ливн. осадки}  10/6 1200 м кучево-дожд., средняя 
[Cb cap|Ac As]
-6 -10.8 69 -7  1026.8  1.8  748  309  -6.5    0.5  30  равномерный
сухой снег
100% 
03 24.11.20 310 (СЗ) 6-10{10}  10 км  слаб. ливневой снег  10/5 1000 м кучево-дожд., средняя, верхняя 
[Cb cap|Ac trans|Ci fib]
-6.2 -11.1 68 -11  1028.7  1.8  750  310  -7         
06 24.11.20 310 (СЗ) 4{10}  20000 м  {ливн. осадки}  10/3 1000 м кучево-дожд., средняя, верхняя 
[Cb cap|Ac trans|Ci fib]
-7.4 -12.3 68 -11  1031.5  2.6  752  312           
09 24.11.20 320 (СЗ) 20000 м  в посл. час ливневой снег  10/5 1000 м кучево-дожд., средняя, верхняя 
[Cb cap|Ac trans|Ci fib]
-9 -11.5 82 -11  1034.5  2.7  754  315           
12 24.11.20 310 (СЗ) 20000 м  {ливн. осадки}  8/0 средняя, верхняя 
[Ac trans|Ci fib]
-9.6 -13.7 72 -11  1036.4  1.9  755  317    -6  0.0     
15 24.11.20 340 (С) 10 км  слаб. снег  10/0 средняя, верхняя 
[Ac trans|Cs]
-9.6 -13.7 72 -11  1037.6  1.1  756  317           
18 24.11.20 160 (Ю) 20000 м  {снег}  6/0 верхняя 
[Ci fib]
-12.1 -14.8 80 -12  1038.6  0.6  756  320           
21 24.11.20 150 (ЮВ) 20000 м    10/0 верхняя 
[Ci fib]
-15.1 -15.7 95 -15  1039.3  0.4  757  324           
00 25.11.20 110 (В) 10 км  снег  10/0 средняя, верхняя 
[Ac trans|Cs]
-13.9 -14.5 95 -16  1039.6  0.4  757  323  -17.3    0.0  29  равномерный
сухой снег
100% 
03 25.11.20 160 (Ю) 10 км  слаб. снег  10/0 средняя, верхняя 
[Ac trans|Cs]
-12.7 -14 90 -13  1039.7  0.5  757  321           
06 25.11.20 160 (Ю) 10 км  слаб. ливневой снег  10/5 1500 м кучево-дожд., средняя, верхняя 
[Cb cap|Ac trans|Ci fib]
-11 -12.3 90 -11  1039.7  757  319           
09 25.11.20 тихо ()   4000 м  слаб. ливневой снег  10/6 1440 м кучево-дожд., средняя 
[Cb cap|Ac und]
-11.3 -11.9 95 -11  1040.5  0.7  758  320           
12 25.11.20 290 (З) 20000 м  в посл. час ливневой снег  10/6 1380 м кучево-дожд., средняя 
[Cb cap|Ac und]
-12.5 -13.1 95 -12  1042.1  1.5  759  322    -10  0.3     
15 25.11.20 тихо ()   20000 м    10/8 1380 м кучево-дожд., средняя 
[Cb cap|Ac und]
-11.8 -12.4 95 -12  1042.8  0.7  760  321           
18 25.11.20 тихо ()   20000 м    10/5 1000 м кучево-дожд., средняя 
[Cb cap|Ac und]
-13.4 -13.9 96 -13  1043.6  0.6  760  323           
21 25.11.20 110 (В) 4000 м  слаб. ливневой снег  10/8 1350 м кучево-дожд., средняя 
[Cb cap|Ac As]
-12.5 -13.1 95 -12  1043.2  -0.2  760  322           
00 26.11.20 160 (Ю) 4000 м  слаб. ливневой снег  10/6 1350 м кучево-дожд., средняя 
[Cb cap|Ac As]
-12.3 -12.9 95 -12  1043.6  0.3  760  322  -14.4    0.2  27  равномерный
сухой снег
100% 
03 26.11.20 140 (ЮВ) 4000 м  слаб. ливневой снег  10/6 1320 м кучево-дожд., средняя 
[Cb cap|Ac As]
-12 -12.6 95 -14  1043.7  0.1  760  322           
06 26.11.20 150 (ЮВ) 10 км  слаб. ливневой снег  10/6 1380 м кучево-дожд., средняя 
[Cb cap|Ac und]
-11.6 -12.9 90 -11  1043  -0.5  760  321           
09 26.11.20 130 (ЮВ) 20000 м  в посл. час ливневой снег  10/5 1000 м кучево-дожд., средняя 
[Cb cap|Ac und]
-11.5 -12.8 90 -11  1043.3  0.3  760  321           
12 26.11.20 тихо ()   20000 м  {ливн. осадки}  10/5 1000 м кучево-дожд., средняя 
[Cb cap|Ac und]
-12 -13.3 90 -12  1044.1  0.6  761  322    -11.2  0.3     
15 26.11.20 тихо ()   10 км  слаб. ливневой снег  10/5 1000 м кучево-дожд., средняя 
[Cb cap|Ac As]
-11.1 -11.7 95 -11  1043.5  -0.5  760  320           
18 26.11.20 тихо ()   4000 м  слаб. ливневой снег  10/5 1000 м кучево-дожд., средняя 
[Cb cap|Ac As]
-10.9 -11.5 95 -11  1043.6  0.1  760  320           
Время (UTC), дата Ветер
(°,м/с) 
Видим.   Явления Облачность Т
(°С)
Тd
(°С)
f(%) Тe
(°С)
Pmin
(гПа)
dP
(гПа)
Po
(мм)
O2
(г/м3)
Тmin Tmax R s Состояние
почвы

Для получения пояснительной информации подведите курсор к названию столбца.

ПОГОДА в Маме - архив

Всё, что Вы хотите узнать о погоде в Маме - удобно и подробно!

Выберите нужную дату (начиная с 1 января 2019* года) и нажмите кнопку "Найти".
Будут отображены архивные сводки погоды по пункту Мама, начиная с указанной даты.


Отображать данные в формате CSV (для использования в таблицах Excel)


Внимание! Наш архив погоды предназначен исключительно для личного некоммерческого использования в познавательных целях. Если Вам необходимы официальные справки о состоянии погоды (для производственных, юридических, коммерческих и т.п. целей), обращайтесь в органы Росгидромета.

*Примечание: данная дата относится к архиву по метеостанциям СССР (Россия, СНГ, Балтия).
Архив по метеостанциям Зарубежной Европы и Азии (кроме Китая) хранится 10 дней, по другим регионам земного шара (Китай, Африка, Америка, Австралия, Океания) - 1 день.

Мама - район местоположения метеостанции


Название, широта, долгота, высота метеостанции:
Мама 58.3°ш. 112.9°д. 224 м над ур. моря [Российская Федерация]

Дополнительная информация

В oтличие oт бoльшинства пoгoдных сайтoв мы публикуем пoдрoбную метеoинфoрмацию в детальнoм прoфессиoнальнoм фoрмате.

Характеристики температуры и влажнoсти вoздуха измеряются на высoте 2 м в тени вдали oт зданий и деревьев.
Скoрoсть ветра измеряется на высoте 10 м (на урoвне рoста челoвека скoрoсть ветра ниже в 1.5-2 раза). Если метеoстанция нахoдится в гoрoде или в лесу, тo скoрoсть ветра занижена на 2-4 м/с пo сравнению с oткрытым местoм. Скoрoсть ветра над акватoриями крупных рек и oзёр, а также на вершинах хoлмoв на 2-5 м/с выше, чем в oбычных услoвиях.
Атмoсфернoе давление в разных тoчках местнoсти мoжет значительнo oтличаться oт давления на метеoстанции, в зависимoсти oт услoвий рельефа (при пoдъёме на 10 м давление пoнижается примернo на 1 мм рт.ст.).